When you browse on this site, cookies collect data to enhance your experience and personalize the content and advertising you see.
Visit our Privacy Policy to learn more. By continuing to use the site, you agree to this use of cookies and data.
  • Em Portugal
  • Lista de países
  • Para 7 dias
  • Temperatura da água
  • Mapas de satélite
  • Mapa do tempo
  • Widgets de tempo
  • user-avatar
    Iniciar Sessão

    Previsão horária em Debreczyn

    Hoje, 20 Julho, Sábado

    Tempo Temperatura Precipitação Vento Pressão Humidade
    00:00 +20°C° 0 mm 2 m/s 752 mmHg 62%
    01:00 +19°C° 0 mm 2 m/s 752 mmHg 63%
    02:00 +20°C° 0 mm 1 m/s 752 mmHg 66%
    03:00 +19°C° 0 mm 1 m/s 753 mmHg 69%
    04:00 +17°C° 0 mm 0 m/s 753 mmHg 72%
    05:00 +20°C° 0 mm 1 m/s 753 mmHg 70%
    06:00 +20°C° 0 mm 2 m/s 753 mmHg 68%
    07:00 +23°C° 0 mm 2 m/s 753 mmHg 66%
    08:00 +25°C° 0 mm 3 m/s 753 mmHg 60%
    09:00 +27°C° 0 mm 3 m/s 753 mmHg 54%
    10:00 +29°C° 0 mm 3 m/s 753 mmHg 48%
    11:00 +30°C° 0 mm 3 m/s 753 mmHg 45%
    12:00 +31°C° 0 mm 3 m/s 753 mmHg 42%
    13:00 +33°C° 0 mm 3 m/s 753 mmHg 39%
    14:00 +31°C° 0 mm 3 m/s 753 mmHg 40%
    15:00 +31°C° 0 mm 3 m/s 753 mmHg 41%
    16:00 +31°C° 0 mm 2 m/s 753 mmHg 42%
    17:00 +30°C° 0 mm 2 m/s 753 mmHg 47%
    18:00 +28°C° 0 mm 2 m/s 753 mmHg 52%
    19:00 +26°C° 0 mm 2 m/s 753 mmHg 57%
    20:00 +25°C° 0.2 mm 2 m/s 753 mmHg 61%
    21:00 +24°C° 0.2 mm 2 m/s 753 mmHg 65%
    22:00 +23°C° 0.2 mm 2 m/s 753 mmHg 68%
    23:00 +21°C° 0.5 mm 2 m/s 753 mmHg 71%

    Amanhã, 21 Julho, Domingo

    Tempo Temperatura Precipitação Vento Pressão Humidade
    00:00 +22°C° 0.5 mm 1 m/s 753 mmHg 73%
    01:00 +21°C° 0.5 mm 1 m/s 753 mmHg 76%
    02:00 +21°C° 0.1 mm 1 m/s 753 mmHg 77%
    03:00 +20°C° 0.1 mm 1 m/s 753 mmHg 78%
    04:00 +19°C° 0.1 mm 2 m/s 753 mmHg 79%
    05:00 +20°C° 0 mm 2 m/s 753 mmHg 75%
    06:00 +23°C° 0 mm 2 m/s 753 mmHg 72%
    07:00 +24°C° 0 mm 2 m/s 753 mmHg 68%
    08:00 +26°C° 0 mm 2 m/s 753 mmHg 62%
    09:00 +28°C° 0 mm 3 m/s 754 mmHg 55%
    10:00 +30°C° 0 mm 3 m/s 754 mmHg 48%
    11:00 +31°C° 0 mm 3 m/s 754 mmHg 45%
    12:00 +33°C° 0 mm 3 m/s 753 mmHg 42%
    13:00 +34°C° 0 mm 4 m/s 753 mmHg 39%
    14:00 +34°C° 0 mm 3 m/s 753 mmHg 40%
    15:00 +34°C° 0 mm 3 m/s 753 mmHg 41%
    16:00 +34°C° 0 mm 3 m/s 753 mmHg 42%
    17:00 +31°C° 0 mm 3 m/s 753 mmHg 48%
    18:00 +30°C° 0 mm 2 m/s 753 mmHg 54%
    19:00 +28°C° 0 mm 2 m/s 753 mmHg 60%
    20:00 +27°C° 0.3 mm 2 m/s 753 mmHg 65%
    21:00 +25°C° 0.3 mm 2 m/s 753 mmHg 69%
    22:00 +24°C° 0.3 mm 2 m/s 753 mmHg 74%
    23:00 +23°C° 0.2 mm 2 m/s 753 mmHg 76%

    Depois de amanhã, 22 Julho, Segunda-feira

    Tempo Temperatura Precipitação Vento Pressão Humidade
    00:00 +23°C° 0.2 mm 2 m/s 753 mmHg 78%
    01:00 +21°C° 0.2 mm 2 m/s 753 mmHg 80%
    02:00 +20°C° 0 mm 2 m/s 753 mmHg 83%
    03:00 +20°C° 0 mm 2 m/s 753 mmHg 86%
    04:00 +19°C° 0 mm 2 m/s 753 mmHg 89%
    05:00 +21°C° 0 mm 3 m/s 754 mmHg 84%
    06:00 +22°C° 0 mm 3 m/s 754 mmHg 80%
    07:00 +23°C° 0 mm 4 m/s 754 mmHg 75%
    08:00 +25°C° 0 mm 5 m/s 754 mmHg 68%
    09:00 +26°C° 0 mm 5 m/s 754 mmHg 62%
    10:00 +28°C° 0 mm 6 m/s 754 mmHg 55%
    11:00 +28°C° 0 mm 5 m/s 754 mmHg 52%
    12:00 +29°C° 0 mm 5 m/s 754 mmHg 49%
    13:00 +29°C° 0 mm 5 m/s 754 mmHg 47%
    14:00 +29°C° 0 mm 4 m/s 754 mmHg 47%
    15:00 +29°C° 0 mm 4 m/s 754 mmHg 48%
    16:00 +29°C° 0 mm 3 m/s 754 mmHg 49%
    17:00 +27°C° 0 mm 3 m/s 754 mmHg 53%
    18:00 +26°C° 0 mm 3 m/s 754 mmHg 58%
    19:00 +25°C° 0 mm 3 m/s 754 mmHg 63%
    20:00 +24°C° 0 mm 3 m/s 754 mmHg 62%
    21:00 +22°C° 0 mm 4 m/s 754 mmHg 61%
    22:00 +22°C° 0 mm 5 m/s 755 mmHg 61%
    23:00 +21°C° 0 mm 4 m/s 755 mmHg 62%

    23 Julho, Terça-feira

    Tempo Temperatura Precipitação Vento Pressão Humidade
    00:00 +20°C° 0 mm 4 m/s 754 mmHg 63%
    01:00 +19°C° 0 mm 4 m/s 754 mmHg 63%
    02:00 +19°C° 0 mm 4 m/s 754 mmHg 65%
    03:00 +19°C° 0 mm 3 m/s 754 mmHg 66%
    04:00 +18°C° 0 mm 3 m/s 754 mmHg 67%
    05:00 +19°C° 0 mm 4 m/s 754 mmHg 66%
    06:00 +20°C° 0 mm 4 m/s 754 mmHg 64%
    07:00 +22°C° 0 mm 5 m/s 754 mmHg 62%
    08:00 +23°C° 0 mm 5 m/s 754 mmHg 58%
    09:00 +25°C° 0 mm 5 m/s 754 mmHg 53%
    10:00 +26°C° 0 mm 5 m/s 754 mmHg 49%
    11:00 +27°C° 0 mm 5 m/s 754 mmHg 48%
    12:00 +27°C° 0 mm 5 m/s 754 mmHg 47%
    13:00 +28°C° 0 mm 5 m/s 753 mmHg 46%
    14:00 +28°C° 0 mm 5 m/s 753 mmHg 46%
    15:00 +28°C° 0 mm 5 m/s 753 mmHg 46%
    16:00 +28°C° 0 mm 4 m/s 753 mmHg 46%
    17:00 +26°C° 0 mm 5 m/s 753 mmHg 51%
    18:00 +23°C° 0 mm 5 m/s 753 mmHg 55%
    19:00 +21°C° 0 mm 5 m/s 753 mmHg 60%
    20:00 +21°C° 0 mm 5 m/s 753 mmHg 60%
    21:00 +21°C° 0 mm 5 m/s 753 mmHg 60%
    22:00 +21°C° 0 mm 5 m/s 754 mmHg 60%
    23:00 +20°C° 0 mm 5 m/s 753 mmHg 64%

    24 Julho, Quarta-feira

    Tempo Temperatura Precipitação Vento Pressão Humidade
    00:00 +19°C° 0 mm 4 m/s 753 mmHg 68%
    01:00 +18°C° 0 mm 4 m/s 753 mmHg 73%
    02:00 +18°C° 0 mm 3 m/s 753 mmHg 76%
    03:00 +17°C° 0 mm 3 m/s 753 mmHg 80%
    04:00 +16°C° 0 mm 3 m/s 753 mmHg 84%
    05:00 +18°C° 0 mm 3 m/s 753 mmHg 79%
    06:00 +20°C° 0 mm 4 m/s 753 mmHg 74%
    07:00 +21°C° 0 mm 4 m/s 753 mmHg 69%
    08:00 +23°C° 0 mm 4 m/s 753 mmHg 64%
    09:00 +25°C° 0 mm 4 m/s 753 mmHg 59%
    10:00 +27°C° 0 mm 4 m/s 753 mmHg 53%
    11:00 +28°C° 0 mm 4 m/s 753 mmHg 52%
    12:00 +28°C° 0 mm 4 m/s 753 mmHg 50%
    13:00 +29°C° 0 mm 4 m/s 753 mmHg 48%
    14:00 +29°C° 0 mm 4 m/s 752 mmHg 49%
    15:00 +29°C° 0 mm 4 m/s 752 mmHg 50%
    16:00 +29°C° 0 mm 4 m/s 752 mmHg 51%
    17:00 +28°C° 0 mm 3 m/s 752 mmHg 56%
    18:00 +26°C° 0 mm 2 m/s 752 mmHg 62%
    19:00 +25°C° 0 mm 2 m/s 752 mmHg 67%
    20:00 +24°C° 0 mm 2 m/s 752 mmHg 71%
    21:00 +22°C° 0 mm 3 m/s 753 mmHg 74%
    22:00 +21°C° 0 mm 3 m/s 753 mmHg 77%
    23:00 +21°C° 0 mm 3 m/s 753 mmHg 81%

    25 Julho, Quinta-feira

    Tempo Temperatura Precipitação Vento Pressão Humidade
    00:00 +20°C° 0 mm 3 m/s 753 mmHg 85%
    01:00 +19°C° 0 mm 3 m/s 753 mmHg 88%
    02:00 +19°C° 0 mm 3 m/s 753 mmHg 90%
    03:00 +18°C° 0 mm 3 m/s 753 mmHg 92%
    04:00 +18°C° 0 mm 3 m/s 753 mmHg 93%
    05:00 +19°C° 0 mm 3 m/s 753 mmHg 87%
    06:00 +21°C° 0 mm 3 m/s 753 mmHg 80%
    07:00 +22°C° 0 mm 3 m/s 753 mmHg 73%
    08:00 +25°C° 0 mm 3 m/s 753 mmHg 66%
    09:00 +27°C° 0 mm 3 m/s 753 mmHg 59%
    10:00 +29°C° 0 mm 4 m/s 753 mmHg 53%
    11:00 +30°C° 0 mm 4 m/s 753 mmHg 49%
    12:00 +32°C° 0 mm 4 m/s 752 mmHg 45%
    13:00 +33°C° 0 mm 4 m/s 752 mmHg 42%
    14:00 +33°C° 0 mm 4 m/s 752 mmHg 42%
    15:00 +33°C° 0 mm 4 m/s 752 mmHg 42%
    16:00 +32°C° 0 mm 4 m/s 751 mmHg 42%
    17:00 +30°C° 0 mm 3 m/s 751 mmHg 48%
    18:00 +28°C° 0 mm 2 m/s 751 mmHg 54%
    19:00 +27°C° 0 mm 2 m/s 751 mmHg 60%
    20:00 +26°C° 0 mm 2 m/s 752 mmHg 65%
    21:00 +25°C° 0 mm 3 m/s 752 mmHg 69%
    22:00 +24°C° 0 mm 3 m/s 752 mmHg 74%
    23:00 +22°C° 0 mm 3 m/s 752 mmHg 77%
    Mostrar mais